Location: Decatur Area Astronomy Club
(40.0275°N, 88.7810°W)
Time: 03:50:53
(UTC-06:00)

Amateur Radio Satellites - All Passes

Search period start: 20 January 2017 03:20
Search period end: 21 January 2017 03:20
Location: Decatur Area Astronomy Club, 40.0275°N, 88.7810°W

Satellite Date Start Highest point End Downlink Frequencies (MHz)
Time Altitude Azimuth
M-CUBED/EXP-1 PRIME 20 Jan 03:21:30 03:25:47 48° 255° (WSW) 03:29:51 437.505
AIST 2 20 Jan 03:30:09 03:33:41 25° 48° (NE) 03:37:11 435.215
CUSAT 1 20 Jan 03:45:52 03:50:41 45° 288° (WNW) 03:56:56 437.405
Cosmos 2491 20 Jan 03:54:04 04:00:40 24° 294° (WNW) 04:07:22 435.465 / 435.565
KKS-1 20 Jan 03:58:26 04:02:40 43° 261° (W) 04:06:54 437.445
CUBESAT XI-V 20 Jan 03:58:54 04:03:36 83° 77° (ENE) 04:08:20 437.345
AUBIESAT-1 20 Jan 03:59:35 04:03:02 23° 259° (WSW) 04:06:19 437.475
ISS 20 Jan 04:02:10 04:05:13 35° 30° (NNE) 04:08:14 145.825
BRITE-PL 20 Jan 04:06:49 04:10:41 24° 92° (E) 04:14:20 437.365/2234.400
RS-15 20 Jan 04:21:47 04:30:28 21° 1° (N) 04:39:10 29.354- 29.394
ITAMSAT 1 20 Jan 04:24:57 04:28:58 23° 295° (WNW) 04:32:58 435.822/435.867
DANDE 20 Jan 04:32:21 04:35:58 49° 285° (WNW) 04:40:49 436.750
PHONESAT 2.4 20 Jan 04:43:51 04:46:09 87° 358° (N) 04:48:27 2401.200-2431.200
NOAA 15 20 Jan 04:48:38 04:49:23 10° 89° (E) 04:50:07 137.62
AO-7 20 Jan 04:52:22 05:00:06 44° 298° (WNW) 05:07:48 29.400- 29.500
STARS 20 Jan 04:53:45 04:57:18 24° 264° (W) 05:00:51 437.465
HORYU 2 20 Jan 04:59:40 05:03:46 35° 98° (E) 05:07:52 437.375
Cosmos 2499 20 Jan 05:06:42 05:11:03 17° 64° (ENE) 05:15:20 435.465 / 435.565
AIST 2 20 Jan 05:08:22 05:12:12 34° 246° (WSW) 05:16:01 435.215
O/OREOS (USA 219) 20 Jan 05:18:17 05:21:37 21° 101° (ESE) 05:24:57 437.305
CUTE-I 20 Jan 05:31:30 05:36:05 28° 96° (E) 05:40:38 437.470
STRAND 1 20 Jan 05:34:13 05:38:26 27° 66° (ENE) 05:42:40 437.568
ISS 20 Jan 05:38:52 05:41:36 25° 226° (SW) 05:44:18 145.825
BRITE-PL 20 Jan 05:44:52 05:49:15 33° 291° (WNW) 05:53:19 437.365/2234.400
GOMX 1 20 Jan 05:50:34 05:55:00 71° 285° (WNW) 05:59:11 467.674
GONETS M04 20 Jan 05:54:22 06:02:20 36° 72° (ENE) 06:10:14
LilacSat-2 20 Jan 05:58:11 06:02:02 61° 101° (E) 06:05:51 437.200
Cubesat XI-IV 20 Jan 06:14:02 06:19:22 70° 102° (ESE) 06:24:42 437.490
NOAA 18 20 Jan 06:15:22 06:20:27 38° 98° (E) 06:25:29 137.9125
PHONESAT 2.4 20 Jan 06:18:06 06:20:05 25° 203° (SSW) 06:22:03 2401.200-2431.200
NOAA 15 20 Jan 06:24:28 06:29:49 89° 285° (WNW) 06:35:07 137.62
CINEMA 3 20 Jan 06:26:07 06:29:24 22° 95° (E) 06:32:43 145.822/145.860
DOVE 4 20 Jan 06:31:34 06:35:43 66° 285° (WNW) 06:39:49 437.250
HORYU 2 20 Jan 06:36:45 06:40:05 21° 294° (WNW) 06:43:26 437.375
RS-15 20 Jan 06:37:15 06:48:19 35° 35° (NE) 06:59:05 29.354- 29.394
CANX-2 20 Jan 06:45:25 06:48:55 24° 95° (E) 06:52:23 2200.000
HO-68 20 Jan 06:50:54 06:57:12 32° 96° (E) 07:03:28 435.675
O/OREOS (USA 219) 20 Jan 06:56:40 07:00:46 35° 298° (WNW) 07:04:53 437.305
SEEDS 20 Jan 06:57:39 07:00:38 18° 93° (E) 07:03:35 437.485
Cosmos 2499 20 Jan 06:57:57 07:05:06 80° 265° (W) 07:12:09 435.465 / 435.565
COMPASS 1 20 Jan 07:04:22 07:06:34 14° 91° (E) 07:08:46 437.405
CUTE-I 20 Jan 07:11:19 07:16:08 35° 292° (WNW) 07:20:56 437.470
STRAND 1 20 Jan 07:12:50 07:17:27 35° 263° (W) 07:22:06 437.568
AAUSAT CUBESAT 2 20 Jan 07:15:56 07:18:13 14° 92° (E) 07:20:28 437.432
CUBEBUG 2 20 Jan 07:23:03 07:26:29 22° 95° (E) 07:29:59 437.445
SO-50 20 Jan 07:45:22 07:50:06 82° 123° (ESE) 07:54:47 436.795
PRISM 20 Jan 07:46:31 07:50:07 28° 69° (ENE) 07:53:42 437.425
FUNcube-1 20 Jan 07:49:25 07:52:00 15° 92° (E) 07:54:36 145.935
GONETS M04 20 Jan 07:50:57 07:59:20 50° 271° (W) 08:07:44
CUTE 1.7 + AOD 2 20 Jan 07:51:22 07:55:40 70° 284° (WNW) 07:59:55 437.475
UWE-3 20 Jan 07:51:51 07:55:42 29° 96° (E) 07:59:37 435.000/436.395/437.385
Cubesat XI-IV 20 Jan 07:55:46 07:58:50 16° 299° (WNW) 08:01:54 437.490
NOAA 18 20 Jan 07:56:21 08:00:54 28° 295° (WNW) 08:05:28 137.9125
CINEMA 3 20 Jan 08:02:55 08:06:32 29° 290° (WNW) 08:10:14 145.822/145.860
UNISAT 6 20 Jan 08:06:25 08:08:40 14° 64° (ENE) 08:10:55 437.425
NOAA 15 20 Jan 08:06:51 08:08:46 12° 302° (WNW) 08:10:41 137.62
ZACube-1 20 Jan 08:11:18 08:15:09 29° 96° (E) 08:19:02 437.345
TIGRISAT 20 Jan 08:19:08 08:22:00 18° 66° (ENE) 08:24:53 435.000
CANX-2 20 Jan 08:21:01 08:24:43 28° 290° (WNW) 08:28:24 2200.000
PCSat 20 Jan 08:25:12 08:29:06 20° 46° (NE) 08:32:59 145.827
SEEDS 20 Jan 08:32:31 08:36:25 36° 288° (WNW) 08:40:17 437.485
ANTELSAT 20 Jan 08:33:29 08:37:04 27° 69° (ENE) 08:40:39 437.575/2403.000
DELFI C3 20 Jan 08:35:44 08:37:41 13° 92° (E) 08:39:36 145.870
HO-68 20 Jan 08:38:16 08:45:04 48° 293° (WNW) 08:51:50 435.675
COMPASS 1 20 Jan 08:38:18 08:42:21 46° 287° (WNW) 08:46:21 437.405
Oscar 11 20 Jan 08:47:57 08:52:17 62° 101° (E) 08:56:35 145.826/435.025
AAUSAT CUBESAT 2 20 Jan 08:49:54 08:53:54 44° 287° (WNW) 08:57:51 437.432
RS-15 20 Jan 08:49:59 09:02:22 84° 242° (WSW) 09:14:14 29.354- 29.394
Cosmos 2499 20 Jan 08:55:24 08:56:51 11° 284° (WNW) 08:58:19 435.465 / 435.565
CUBEBUG 2 20 Jan 08:59:18 09:03:06 31° 289° (WNW) 09:07:01 437.445
PRISM 20 Jan 09:22:05 09:25:22 22° 265° (W) 09:28:40 437.425
FUNcube-1 20 Jan 09:24:14 09:28:26 47° 287° (WNW) 09:32:43 145.935
SO-50 20 Jan 09:28:23 09:31:09 15° 319° (NW) 09:33:53 436.795
UWE-3 20 Jan 09:28:29 09:32:01 24° 291° (WNW) 09:35:37 435.000/436.395/437.385
JAS-2 20 Jan 09:33:56 09:38:54 41° 68° (ENE) 09:44:18 435.910
QB50P1 20 Jan 09:37:12 09:39:12 13° 64° (ENE) 09:41:11 145.935-145.965
UNISAT 6 20 Jan 09:40:49 09:44:57 50° 260° (W) 09:49:06 437.425
POLYITAN 1 20 Jan 09:40:56 09:43:14 15° 65° (ENE) 09:45:34 437.675
QB50P2 20 Jan 09:41:52 09:44:27 16° 65° (ENE) 09:47:02 145.880/145.840
ZACube-1 20 Jan 09:47:43 09:51:18 25° 291° (WNW) 09:54:55 437.345
TIGRISAT 20 Jan 09:54:28 09:58:25 37° 262° (W) 10:02:23 435.000
HUMSAT D 20 Jan 09:59:50 10:04:07 73° 102° (ESE) 10:08:24 437.325/437.525
POPSAT HIP 1 20 Jan 10:02:30 10:05:53 24° 68° (ENE) 10:09:16 437.405
BY70-1 20 Jan 10:02:48 10:04:30 13° 92° (E) 10:06:08 436.1900
PCSat 20 Jan 10:07:37 10:13:01 69° 244° (WSW) 10:18:23 145.827
DELFI C3 20 Jan 10:08:54 10:12:42 43° 287° (WNW) 10:16:28 145.870
ANTELSAT 20 Jan 10:10:16 10:13:44 24° 265° (W) 10:17:12 437.575/2403.000
DUCHIFAT 1 20 Jan 10:13:22 10:16:54 27° 69° (ENE) 10:20:26 145.980
NANOSAT C BR1 20 Jan 10:18:31 10:22:18 34° 71° (ENE) 10:26:06 145.865
Oscar 11 20 Jan 10:26:02 10:27:52 12° 297° (WNW) 10:29:42 145.826/435.025
BUGSAT 1 20 Jan 10:48:56 10:52:13 24° 69° (ENE) 10:55:29 437.445
ESTCUBE 1 20 Jan 10:49:27 10:53:30 31° 96° (E) 10:57:31 437.505/2401.250
VELOX 1 20 Jan 11:02:37 11:05:08 15° 92° (E) 11:07:37 145.980
RS-15 20 Jan 11:04:59 11:12:53 21° 262° (W) 11:20:38 29.354- 29.394
QB50P1 20 Jan 11:10:23 11:14:30 53° 260° (W) 11:18:36 145.935-145.965
POLYITAN 1 20 Jan 11:14:36 11:18:38 47° 261° (W) 11:22:41 437.675
QB50P2 20 Jan 11:15:54 11:19:53 42° 261° (W) 11:23:53 145.880/145.840
JAS-2 20 Jan 11:20:01 11:24:14 24° 268° (W) 11:28:46 435.910
SPROUT 20 Jan 11:31:35 11:34:59 23° 95° (E) 11:38:22 437.525
BY70-1 20 Jan 11:32:03 11:34:53 27° 290° (WNW) 11:37:36 436.1900
DX 1 20 Jan 11:35:04 11:37:42 16° 93° (E) 11:40:19 434.975-435.025
UKube-1 20 Jan 11:35:46 11:36:54 11° 91° (E) 11:38:03 .
POPSAT HIP 1 20 Jan 11:38:00 11:41:32 26° 264° (W) 11:45:06 437.405
HUMSAT D 20 Jan 11:38:21 11:39:07 10° 297° (WNW) 11:39:52 437.325/437.525
Oscar 19 20 Jan 11:40:59 11:45:22 28° 67° (ENE) 11:49:47 437.125/150
CUBEBUG 1 20 Jan 11:47:57 11:52:18 82° 103° (ESE) 11:56:36 437.445
DUCHIFAT 1 20 Jan 11:49:12 11:52:32 23° 265° (W) 11:55:53 145.980
Gurwin Techsat 1B 20 Jan 11:54:50 11:58:44 21° 64° (ENE) 12:02:37 435.225
NANOSAT C BR1 20 Jan 11:55:10 11:58:06 18° 266° (W) 12:01:03 145.865
AISAT 20 Jan 12:04:02 12:08:26 78° 102° (ESE) 12:12:48 437.250
Cosmos 2491 20 Jan 12:05:49 12:13:42 35° 71° (ENE) 12:21:33 435.465 / 435.565
AO-7 20 Jan 12:11:36 12:14:39 12° 44° (NE) 12:17:41 29.400- 29.500
YUBILEINY 20 Jan 12:15:41 12:20:03 15° 76° (ENE) 12:24:25 435.215
50 SAT 20 Jan 12:15:51 12:19:27 85° 105° (ESE) 12:22:58 437.505
BUGSAT 1 20 Jan 12:24:06 12:27:28 25° 264° (W) 12:30:50 437.445
ESTCUBE 1 20 Jan 12:26:30 12:30:09 24° 292° (WNW) 12:33:46 437.505/2401.250
VELOX 1 20 Jan 12:37:36 12:41:49 47° 288° (WNW) 12:46:01 145.980
CUSAT 1 20 Jan 12:37:40 12:43:58 25° 65° (ENE) 12:49:57 437.405
TISAT 1 20 Jan 12:59:34 13:03:15 30° 97° (E) 13:06:56 437.305
SPROUT 20 Jan 13:07:13 13:10:53 29° 290° (WNW) 13:14:32 437.525
UKube-1 20 Jan 13:09:04 13:13:19 61° 286° (WNW) 13:17:33 .
DX 1 20 Jan 13:09:58 13:14:06 43° 288° (WNW) 13:18:11 434.975-435.025
Oscar 19 20 Jan 13:19:50 13:24:32 34° 263° (W) 13:29:17 437.125/150
DANDE 20 Jan 13:26:21 13:32:15 23° 67° (ENE) 13:38:27 436.750
AO-85 20 Jan 13:28:35 13:33:18 63° 119° (ESE) 13:37:41 145.980
Cosmos 2504 20 Jan 13:28:57 13:35:41 26° 83° (E) 13:42:07 435.465 / 435.565
AIST 1 20 Jan 13:30:32 13:34:49 57° 94° (E) 13:39:05
Gurwin Techsat 1B 20 Jan 13:33:09 13:38:17 50° 260° (W) 13:43:28 435.225
BEESAT 20 Jan 13:38:49 13:41:51 17° 92° (E) 13:44:52 436.000
SWISSCUBE 20 Jan 13:40:07 13:43:34 19° 94° (E) 13:46:59 437.505
AISAT 20 Jan 13:43:42 13:44:14 10° 299° (WNW) 13:44:46 437.250
AO-7 20 Jan 13:57:30 14:05:34 56° 65° (ENE) 14:13:40 29.400- 29.500
ITAMSAT 1 20 Jan 14:02:04 14:07:09 64° 73° (ENE) 14:12:17 435.822/435.867
Cosmos 2491 20 Jan 14:02:24 14:10:44 50° 271° (W) 14:19:07 435.465 / 435.565
YUBILEINY 20 Jan 14:06:32 14:15:19 82° 95° (E) 14:24:12 435.215
CUSAT 1 20 Jan 14:18:39 14:26:39 73° 264° (W) 14:33:56 437.405
TISAT 1 20 Jan 14:35:31 14:38:42 22° 292° (WNW) 14:41:53 437.305
ITUPSAT 1 20 Jan 14:40:28 14:45:17 71° 102° (ESE) 14:50:05 437.325
DANDE 20 Jan 15:07:46 15:15:38 83° 262° (W) 15:24:01 436.750
MOZHAYETS 4 20 Jan 15:10:19 15:14:48 46° 99° (E) 15:19:15
AO-85 20 Jan 15:11:01 15:14:02 17° 315° (NW) 15:16:56 145.980
AIST 1 20 Jan 15:11:03 15:12:47 12° 291° (WNW) 15:14:30
BEESAT 20 Jan 15:15:16 15:19:54 50° 288° (WNW) 15:24:30 436.000
BRITE-PL 20 Jan 15:15:28 15:20:24 31° 68° (ENE) 15:25:17 437.365/2234.400
SWISSCUBE 20 Jan 15:16:59 15:21:31 43° 289° (WNW) 15:26:02 437.505
Cosmos 2504 20 Jan 15:19:48 15:28:27 65° 280° (W) 15:36:36 435.465 / 435.565
GOMX 1 20 Jan 15:21:42 15:24:29 14° 63° (ENE) 15:27:12 467.674
O/OREOS (USA 219) 20 Jan 15:27:42 15:31:53 37° 63° (ENE) 15:36:04 437.305
BEESAT 2 20 Jan 15:29:44 15:31:37 13° 109° (ESE) 15:33:32 435.950
AUBIESAT-1 20 Jan 15:38:34 15:40:52 17° 100° (E) 15:43:08 437.475
ITAMSAT 1 20 Jan 15:44:15 15:47:03 15° 269° (W) 15:49:51 435.822/435.867
KKS-1 20 Jan 15:49:49 15:53:53 35° 98° (E) 15:57:57 437.445
AO-7 20 Jan 15:51:20 15:58:36 33° 263° (W) 16:05:56 29.400- 29.500
CUBESAT XI-V 20 Jan 15:56:52 16:00:27 22° 93° (E) 16:04:01 437.345
HORYU 2 20 Jan 15:57:05 16:00:56 31° 69° (ENE) 16:04:49 437.375
Cubesat XI-IV 20 Jan 15:58:39 16:01:21 14° 60° (ENE) 16:04:05 437.490
DOVE 4 20 Jan 16:01:11 16:03:12 13° 63° (ENE) 16:05:11 437.250
CUSAT 1 20 Jan 16:03:41 16:07:05 13° 283° (WNW) 16:10:25 437.405
NOAA 15 20 Jan 16:06:25 16:09:53 18° 62° (ENE) 16:13:23 137.62
YUBILEINY 20 Jan 16:06:52 16:13:11 21° 296° (WNW) 16:19:34 435.215
SO-50 20 Jan 16:17:27 16:21:56 59° 55° (NE) 16:26:19 436.795
BEESAT 3 20 Jan 16:20:01 16:23:53 66° 304° (NW) 16:27:48 437.485
ITUPSAT 1 20 Jan 16:20:16 16:22:30 13° 299° (WNW) 16:24:43 437.325
M-CUBED/EXP-1 PRIME 20 Jan 16:35:34 16:38:52 52° 291° (WNW) 16:42:02 437.505
LilacSat-2 20 Jan 16:39:44 16:42:54 26° 70° (ENE) 16:46:07 437.200
STARS 20 Jan 16:42:33 16:46:53 62° 102° (ESE) 16:51:11 437.465
MOZHAYETS 4 20 Jan 16:48:27 16:51:35 18° 295° (WNW) 16:54:43
CUTE-I 20 Jan 16:52:33 16:57:33 44° 70° (ENE) 17:02:34 437.470
DANDE 20 Jan 16:52:43 16:57:25 17° 278° (W) 17:02:15 436.750
BRITE-PL 20 Jan 16:53:27 16:58:41 37° 264° (W) 17:03:55 437.365/2234.400
GOMX 1 20 Jan 16:56:32 17:01:57 76° 257° (WSW) 17:07:11 467.674
BEESAT 2 20 Jan 17:05:07 17:08:56 50° 305° (NW) 17:12:51 435.950
O/OREOS (USA 219) 20 Jan 17:07:43 17:11:00 20° 259° (W) 17:14:18 437.305
AUBIESAT-1 20 Jan 17:12:37 17:15:18 22° 296° (WNW) 17:17:55 437.475
HO-68 20 Jan 17:19:48 17:25:15 24° 59° (ENE) 17:30:43 435.675
Cosmos 2504 20 Jan 17:20:37 17:23:24 12° 300° (WNW) 17:26:10 435.465 / 435.565
KKS-1 20 Jan 17:26:56 17:30:13 21° 294° (WNW) 17:33:29 437.445
CINEMA 3 20 Jan 17:27:32 17:30:43 20° 68° (ENE) 17:33:48 145.822/145.860
CUBESAT XI-V 20 Jan 17:33:37 17:37:55 36° 289° (WNW) 17:42:11 437.345
HORYU 2 20 Jan 17:33:58 17:37:29 23° 265° (W) 17:41:01 437.375
DOVE 4 20 Jan 17:35:19 17:40:21 75° 258° (WSW) 17:45:07 437.250
Cubesat XI-IV 20 Jan 17:35:26 17:40:45 77° 256° (WSW) 17:46:06 437.490
CANX-2 20 Jan 17:38:16 17:40:56 16° 66° (ENE) 17:43:37 2200.000
NOAA 18 20 Jan 17:40:53 17:46:21 69° 73° (ENE) 17:51:49 137.9125
NOAA 15 20 Jan 17:43:56 17:49:09 60° 259° (WSW) 17:54:25 137.62
Cosmos 2499 20 Jan 17:44:14 17:48:34 15° 79° (E) 17:52:44 435.465 / 435.565
SEEDS 20 Jan 17:49:57 17:51:44 13° 64° (ENE) 17:53:33 437.485
SO-50 20 Jan 17:59:31 18:01:52 14° 251° (WSW) 18:04:11 436.795
LilacSat-2 20 Jan 18:14:26 18:17:11 19° 266° (W) 18:19:57 437.200
STARS 20 Jan 18:20:49 18:22:42 13° 297° (WNW) 18:24:34 437.465
CUBEBUG 2 20 Jan 18:21:28 18:24:08 17° 66° (ENE) 18:26:48 437.445
CUTE-I 20 Jan 18:33:40 18:37:46 23° 266° (W) 18:41:53 437.470
CUTE 1.7 + AOD 2 20 Jan 18:42:50 18:47:04 73° 75° (ENE) 18:51:20 437.475
FUNcube-1 20 Jan 18:46:27 18:47:13 10° 63° (ENE) 18:47:59 145.935
UWE-3 20 Jan 18:48:54 18:52:00 21° 68° (ENE) 18:55:07 435.000/436.395/437.385
GONETS M04 20 Jan 18:54:43 19:02:38 41° 87° (E) 19:10:35
CINEMA 3 20 Jan 19:03:33 19:07:38 35° 262° (W) 19:11:35 145.822/145.860
AIST 2 20 Jan 19:04:29 19:08:30 57° 118° (ESE) 19:12:35 435.215
HO-68 20 Jan 19:05:10 19:12:20 69° 257° (WSW) 19:19:32 435.675
ZACube-1 20 Jan 19:07:11 19:10:12 20° 67° (ENE) 19:13:15 437.345
CANX-2 20 Jan 19:12:23 19:16:25 42° 261° (W) 19:20:31 2200.000
SEEDS 20 Jan 19:22:46 19:26:55 58° 260° (W) 19:31:07 437.485
STRAND 1 20 Jan 19:23:14 19:28:24 83° 105° (ESE) 19:33:33 437.568
NOAA 18 20 Jan 19:24:27 19:27:29 15° 269° (W) 19:30:31 137.9125
COMPASS 1 20 Jan 19:27:36 19:31:47 79° 258° (WSW) 19:36:01 437.405
Cosmos 2499 20 Jan 19:32:06 19:40:37 86° 96° (E) 19:48:31 435.465 / 435.565
AAUSAT CUBESAT 2 20 Jan 19:38:38 19:42:48 77° 259° (W) 19:47:01 437.432
Oscar 11 20 Jan 19:41:51 19:45:55 42° 72° (ENE) 19:50:01 145.826/435.025
CUBEBUG 2 20 Jan 19:56:34 20:00:28 38° 262° (W) 20:04:21 437.445
FUNcube-1 20 Jan 20:18:47 20:22:52 66° 259° (W) 20:27:01 145.935
UWE-3 20 Jan 20:24:39 20:28:17 29° 263° (W) 20:31:57 435.000/436.395/437.385
ZACube-1 20 Jan 20:42:36 20:46:17 31° 264° (W) 20:50:00 437.345
ISS 20 Jan 20:42:58 20:44:45 14° 130° (SE) 20:46:33 145.825
AIST 2 20 Jan 20:44:39 20:47:19 16° 316° (NW) 20:50:01 435.215
HUMSAT D 20 Jan 20:50:13 20:54:06 43° 73° (ENE) 20:58:02 437.325/437.525
GONETS M04 20 Jan 20:51:14 20:59:20 43° 286° (WNW) 21:07:35
DELFI C3 20 Jan 20:53:03 20:57:04 88° 257° (WSW) 21:01:07 145.870
PRISM 20 Jan 21:03:04 21:07:04 49° 100° (E) 21:11:01 437.425
STRAND 1 20 Jan 21:04:42 21:06:51 13° 300° (WNW) 21:09:00 437.568
RS-15 20 Jan 21:06:39 21:12:20 15° 95° (E) 21:18:04 29.354- 29.394
Oscar 11 20 Jan 21:19:34 21:22:14 16° 268° (W) 21:24:55 145.826/435.025
Cosmos 2499 20 Jan 21:29:12 21:34:37 19° 294° (WNW) 21:39:49 435.465 / 435.565
UNISAT 6 20 Jan 21:32:44 21:36:46 33° 97° (E) 21:40:52 437.425
BY70-1 20 Jan 21:45:17 21:48:06 38° 73° (ENE) 21:51:08 436.1900
TIGRISAT 20 Jan 21:45:49 21:50:03 43° 99° (E) 21:54:22 435.000
ESTCUBE 1 20 Jan 21:48:22 21:52:11 27° 68° (ENE) 21:56:01 437.505/2401.250
VELOX 1 20 Jan 21:59:55 22:02:05 14° 63° (ENE) 22:04:16 145.980
AO-85 20 Jan 22:00:52 22:04:34 38° 53° (NE) 22:08:13 145.980
ANTELSAT 20 Jan 22:01:01 22:05:27 68° 101° (E) 22:09:59 437.575/2403.000
ISS 20 Jan 22:17:40 22:20:53 59° 325° (NW) 22:24:07 145.825
SPROUT 20 Jan 22:25:00 22:27:46 17° 66° (ENE) 22:30:32 437.525
JAS-2 20 Jan 22:26:24 22:33:24 48° 99° (E) 22:40:50 435.910
HUMSAT D 20 Jan 22:27:45 22:29:56 14° 269° (W) 22:32:09 437.325/437.525
DX 1 20 Jan 22:30:39 22:32:53 14° 63° (ENE) 22:35:06 434.975-435.025
PRISM 20 Jan 22:39:49 22:41:55 14° 296° (WNW) 22:43:59 437.425
CUBEBUG 1 20 Jan 22:42:47 22:47:07 61° 74° (ENE) 22:51:28 437.445
50 SAT 20 Jan 22:49:55 22:53:02 28° 71° (ENE) 22:56:09 437.505
QB50P1 20 Jan 22:55:58 22:59:26 24° 95° (E) 23:02:52 145.935-145.965
POLYITAN 1 20 Jan 23:00:07 23:03:46 27° 96° (E) 23:07:23 437.675
AISAT 20 Jan 23:00:16 23:04:39 62° 74° (ENE) 23:09:03 437.250
QB50P2 20 Jan 23:01:18 23:05:04 30° 97° (E) 23:08:47 145.880/145.840
PCSat 20 Jan 23:07:33 23:10:51 17° 104° (ESE) 23:14:09 145.827
UNISAT 6 20 Jan 23:09:50 23:13:17 23° 292° (WNW) 23:16:47 437.425
RS-15 20 Jan 23:10:40 23:22:20 71° 115° (ESE) 23:34:32 29.354- 29.394
POPSAT HIP 1 20 Jan 23:22:27 23:26:32 48° 100° (E) 23:30:38 437.405
TIGRISAT 20 Jan 23:23:26 23:26:26 18° 294° (WNW) 23:29:26 435.000
ESTCUBE 1 20 Jan 23:25:01 23:28:53 28° 264° (W) 23:32:47 437.505/2401.250
DUCHIFAT 1 20 Jan 23:32:40 23:36:48 54° 100° (E) 23:40:54 145.980
VELOX 1 20 Jan 23:33:39 23:38:02 59° 259° (W) 23:42:26 145.980
NANOSAT C BR1 20 Jan 23:38:24 23:42:37 71° 102° (ESE) 23:46:49 145.865
AIST 1 20 Jan 23:39:47 23:41:50 13° 70° (ENE) 23:43:52
ANTELSAT 20 Jan 23:39:56 23:41:37 12° 297° (WNW) 23:43:19 437.575/2403.000
AO-85 20 Jan 23:42:10 23:44:37 16° 249° (WSW) 23:47:05 145.980
TISAT 1 20 Jan 23:50:52 23:54:02 21° 67° (ENE) 23:57:12 437.305
ISS 20 Jan 23:55:55 23:57:54 15° 344° (NNW) 23:59:53 145.825
SPROUT 20 Jan 23:59:20 00:03:21 40° 261° (W) 00:07:23 437.525
UKube-1 21 Jan 00:02:22 00:06:42 81° 257° (WSW) 00:11:02 .
DX 1 21 Jan 00:04:17 00:08:35 56° 259° (W) 00:12:53 434.975-435.025
BUGSAT 1 21 Jan 00:05:30 00:09:22 43° 99° (E) 00:13:14 437.445
JAS-2 21 Jan 00:11:47 00:18:11 36° 294° (WNW) 00:25:03 435.910
YUBILEINY 21 Jan 00:17:58 00:26:06 39° 73° (ENE) 00:34:07 435.215
CUBEBUG 1 21 Jan 00:22:15 00:23:46 12° 270° (W) 00:25:17 437.445
50 SAT 21 Jan 00:24:01 00:26:16 16° 266° (W) 00:28:32 437.505
QB50P1 21 Jan 00:31:35 00:35:08 27° 291° (WNW) 00:38:40 145.935-145.965
POLYITAN 1 21 Jan 00:36:01 00:39:26 24° 292° (WNW) 00:42:51 437.675
BEESAT 3 21 Jan 00:37:24 00:41:20 55° 56° (NE) 00:45:15 437.485
QB50P2 21 Jan 00:37:25 00:40:40 22° 292° (WNW) 00:43:56 145.880/145.840
AISAT 21 Jan 00:39:59 00:41:29 11° 269° (W) 00:42:59 437.250
BEESAT 21 Jan 00:44:43 00:48:00 19° 64° (ENE) 00:51:18 436.000
SWISSCUBE 21 Jan 00:46:03 00:49:38 22° 65° (ENE) 00:53:14 437.505
PCSat 21 Jan 00:48:17 00:53:39 65° 301° (WNW) 00:59:04 145.827
POPSAT HIP 1 21 Jan 00:59:34 01:01:54 15° 295° (WNW) 01:04:15 437.405
Cosmos 2491 21 Jan 01:06:19 01:14:13 41° 87° (E) 01:22:08 435.465 / 435.565
DUCHIFAT 1 21 Jan 01:10:04 01:12:00 13° 296° (WNW) 01:13:57 145.980
Cosmos 2504 21 Jan 01:13:57 01:20:55 43° 75° (ENE) 01:27:38 435.465 / 435.565
AIST 1 21 Jan 01:15:37 01:19:44 48° 267° (W) 01:23:49
NANOSAT C BR1 21 Jan 01:17:04 01:17:44 10° 298° (WNW) 01:18:24 145.865
BEESAT 2 21 Jan 01:23:13 01:27:17 74° 57° (ENE) 01:31:18 435.950
RS-15 21 Jan 01:24:42 01:35:48 41° 320° (NW) 01:47:18 29.354- 29.394
TISAT 1 21 Jan 01:25:47 01:29:28 30° 263° (W) 01:33:11 437.305
PHONESAT 2.4 21 Jan 01:29:28 01:31:34 30° 159° (SSE) 01:33:39 2401.200-2431.200
Oscar 19 21 Jan 01:31:23 01:36:36 87° 104° (ESE) 01:41:45 437.125/150
ISS 21 Jan 01:34:27 01:35:28 11° 5° (N) 01:36:30 145.825
CUSAT 1 21 Jan 01:39:48 01:42:57 16° 78° (ENE) 01:46:30 437.405
BUGSAT 1 21 Jan 01:42:07 01:44:22 15° 295° (WNW) 01:46:38 437.445
ITUPSAT 1 21 Jan 01:46:20 01:51:05 76° 74° (ENE) 01:55:52 437.325
M-CUBED/EXP-1 PRIME 21 Jan 01:47:48 01:50:12 15° 61° (ENE) 01:52:30 437.505
Gurwin Techsat 1B 21 Jan 01:49:44 01:55:03 69° 102° (ESE) 02:00:20 435.225
AO-7 21 Jan 02:01:49 02:06:44 17° 90° (E) 02:11:36 29.400- 29.500
MOZHAYETS 4 21 Jan 02:11:26 02:15:40 40° 71° (ENE) 02:19:58
YUBILEINY 21 Jan 02:14:44 02:22:56 45° 272° (W) 02:31:03 435.215
ITAMSAT 1 21 Jan 02:16:08 02:20:17 24° 95° (E) 02:24:24 435.822/435.867
BEESAT 3 21 Jan 02:16:47 02:18:28 12° 251° (WSW) 02:20:09 437.485
BEESAT 21 Jan 02:20:51 02:25:25 46° 260° (W) 02:30:01 436.000
AUBIESAT-1 21 Jan 02:22:39 02:26:13 27° 66° (ENE) 02:29:37 437.475
SWISSCUBE 21 Jan 02:22:43 02:27:09 39° 262° (W) 02:31:38 437.505
PCSat 21 Jan 02:36:06 02:38:08 12° 321° (NW) 02:40:11 145.827
KKS-1 21 Jan 02:47:12 02:51:06 31° 69° (ENE) 02:55:01 437.445
CUBESAT XI-V 21 Jan 02:59:41 03:03:08 21° 66° (ENE) 03:06:37 437.345
Cosmos 2491 21 Jan 03:02:50 03:10:57 43° 286° (WNW) 03:19:08 435.465 / 435.565
PHONESAT 2.4 21 Jan 03:03:13 03:05:30 81° 359° (N) 03:07:48 2401.200-2431.200
Cosmos 2504 21 Jan 03:07:44 03:14:01 32° 275° (W) 03:20:08 435.465 / 435.565
ISS 21 Jan 03:10:11 03:12:52 23° 25° (NNE) 03:15:33 145.825
Oscar 19 21 Jan 03:13:14 03:15:08 12° 301° (WNW) 03:17:02 437.125/150
